Date String (YYYY-MM-DD hh:mm:ss) UTC,Instrument flags,absolute air pressure of the measurement (hPa),sample flow rate (lpm),inlet stack bypass flow (lpm),air temperature of the measurement (°C),ambient temperature measured by the external sensor (°C),aerosol sample conditioner tube jacket temperature (°C),OPC LED temperature (°C),internal box temperature (°C),relative humidity of the measurement (%),span deviation,mass concentration of particles derived from Lorenz-Mie calculation of OPC scattering (μg/m³),mass concentration of particles derived from Lorenz-Mie calculation of OPC scattering (μg/m³),mass concentration of particles derived from Lorenz-Mie calculation of OPC scattering (μg/m³)
DateTimeUTC,F1_M11,P_M11,Q1_M11,Q2_M11,T1_M11,T2_M11,T3_M11,T4_M11,T5_M11,U1_M11,ZSPAN_M11,X0_M11,X2_M11,X1_M11
2024-02-25 19:00:00,SystemResetWarning,0824.8,5.00,000.00,021.7,021.2,000.0,029.7,023.4,07.1,0000.0,0010.47,0003.43,0001.48
2024-02-25 19:01:00,SystemResetWarning,0824.7,5.00,000.00,021.7,021.2,000.0,029.7,023.4,07.1,0000.0,0010.55,0003.46,0001.49
2024-02-25 19:02:00,SystemResetWarning,0824.7,5.01,000.00,021.7,021.2,000.0,029.7,023.5,07.3,0000.0,0010.67,0003.45,0001.50
2024-02-25 19:03:00,SystemResetWarning,0824.7,5.00,000.00,021.8,021.2,000.0,029.7,023.5,07.1,0000.0,0011.87,0003.46,0001.49
2024-02-25 19:04:00,SystemResetWarning,0824.7,4.99,000.00,021.8,021.3,000.0,029.7,023.5,07.4,0000.0,0012.88,0003.48,0001.51
2024-02-25 19:05:00,SystemResetWarning,0824.7,5.00,000.00,021.8,021.3,000.0,029.8,023.5,07.4,0000.0,0013.15,0003.47,0001.52
2024-02-25 19:06:00,SystemResetWarning,0824.7,5.00,000.00,021.8,021.3,000.0,029.8,023.5,07.4,0000.0,0013.67,0003.47,0001.52
2024-02-25 19:07:00,SystemResetWarning,0824.5,5.00,000.00,021.8,021.3,000.0,029.8,023.5,07.4,0000.0,0013.29,0003.43,0001.51
2024-02-25 19:08:00,SystemResetWarning,0824.5,5.01,000.00,021.8,021.3,000.0,029.8,023.5,07.5,0000.0,0013.48,0003.41,0001.50
2024-02-25 19:09:00,SystemResetWarning,0824.4,4.98,000.00,021.8,021.3,000.0,029.8,023.5,07.5,0000.0,0014.37,0003.41,0001.50
2024-02-25 19:10:00,SystemResetWarning,0824.5,4.99,000.00,021.9,021.3,000.0,029.8,023.6,07.5,0000.0,0014.58,0003.43,0001.51
2024-02-25 19:11:00,SystemResetWarning,0824.3,5.00,000.00,021.9,021.3,000.0,029.8,023.6,07.4,0000.0,0014.34,0003.41,0001.51
2024-02-25 19:12:00,SystemResetWarning,0824.4,5.00,000.00,021.9,021.3,000.0,029.9,023.6,07.2,0000.0,0013.62,0003.40,0001.51
2024-02-25 19:13:00,SystemResetWarning,0824.5,5.00,000.00,021.9,021.4,000.0,029.9,023.6,07.2,0000.0,0013.58,0003.40,0001.49
2024-02-25 19:14:00,SystemResetWarning,0824.4,5.01,000.00,021.9,021.4,000.0,029.9,023.6,07.4,0000.0,0012.80,0003.43,0001.49
2024-02-25 19:15:00,SystemResetWarning,0824.3,5.01,000.00,021.9,021.4,000.0,029.9,023.6,07.4,0000.0,0011.47,0003.39,0001.48
2024-02-25 19:16:00,SystemResetWarning,0824.3,5.00,000.00,021.9,021.4,000.0,029.9,023.6,07.4,0000.0,0011.26,0003.37,0001.48
2024-02-25 19:17:00,SystemResetWarning,0824.3,5.01,000.00,021.9,021.4,000.0,029.9,023.6,07.3,0000.0,0011.32,0003.37,0001.47
2024-02-25 19:18:00,SystemResetWarning,0824.3,5.00,000.00,022.0,021.4,000.0,029.9,023.6,07.4,0000.0,0011.30,0003.38,0001.49
2024-02-25 19:19:00,SystemResetWarning,0824.2,5.00,000.00,022.0,021.4,000.0,029.9,023.7,07.4,0000.0,0011.36,0003.39,0001.50
2024-02-25 19:20:00,SystemResetWarning,0824.2,5.00,000.00,022.0,021.4,000.0,030.0,023.7,07.4,0000.0,0011.54,0003.38,0001.51
2024-02-25 19:21:00,SystemResetWarning,0824.3,5.00,000.00,022.0,021.4,000.0,030.0,023.7,07.4,0000.0,0011.45,0003.39,0001.49
2024-02-25 19:22:00,SystemResetWarning,0824.1,5.00,000.00,022.0,021.4,000.0,030.0,023.7,07.6,0000.0,0011.66,0003.35,0001.48
2024-02-25 19:23:00,SystemResetWarning,0824.2,5.00,000.00,022.0,021.4,000.0,030.0,023.7,07.5,0000.0,0011.94,0003.36,0001.48
2024-02-25 19:24:00,SystemResetWarning,0824.2,5.00,000.00,022.0,021.4,000.0,030.0,023.7,07.6,0000.0,0012.44,0003.38,0001.48
2024-02-25 19:25:00,SystemResetWarning,0824.1,5.00,000.00,022.0,021.5,000.0,030.0,023.7,07.7,0000.0,0012.41,0003.41,0001.50
2024-02-25 19:26:00,SystemResetWarning,0824.0,5.00,000.00,022.1,021.5,000.0,030.0,023.7,07.6,0000.0,0012.62,0003.45,0001.50
2024-02-25 19:27:00,SystemResetWarning,0823.9,5.01,000.00,022.1,021.5,000.0,030.1,023.7,07.6,0000.0,0012.43,0003.44,0001.50
2024-02-25 19:28:00,SystemResetWarning,0824.0,5.01,000.00,022.1,021.5,000.0,030.1,023.8,07.6,0000.0,0011.93,0003.47,0001.53
2024-02-25 19:29:00,SystemResetWarning,0823.8,5.00,000.00,022.1,021.5,000.0,030.1,023.8,07.6,0000.0,0011.96,0003.48,0001.53
2024-02-25 19:30:00,SystemResetWarning,0824.0,4.99,000.00,022.1,021.5,000.0,030.1,023.8,07.6,0000.0,0012.25,0003.49,0001.52
2024-02-25 19:31:00,SystemResetWarning,0824.0,4.99,000.00,022.1,021.5,000.0,030.1,023.8,07.7,0000.0,0011.42,0003.51,0001.51
2024-02-25 19:32:00,SystemResetWarning,0823.8,5.01,000.00,022.1,021.5,000.0,030.1,023.8,07.9,0000.0,0011.68,0003.54,0001.52
2024-02-25 19:33:00,SystemResetWarning,0823.9,5.01,000.00,022.1,021.5,000.0,030.1,023.8,07.7,0000.0,0012.18,0003.56,0001.52
2024-02-25 19:34:00,SystemResetWarning,0823.9,5.00,000.00,022.1,021.6,000.0,030.1,023.8,07.6,0000.0,0012.53,0003.58,0001.52
2024-02-25 19:35:00,SystemResetWarning,0823.8,4.98,000.00,022.2,021.6,000.0,030.1,023.8,07.7,0000.0,0011.86,0003.57,0001.52
2024-02-25 19:36:00,SystemResetWarning,0823.8,5.00,000.00,022.2,021.6,000.0,030.2,023.8,07.7,0000.0,0011.62,0003.48,0001.50
2024-02-25 19:37:00,SystemResetWarning,0823.9,5.01,000.00,022.2,021.6,000.0,030.2,023.8,07.5,0000.0,0012.31,0003.46,0001.49
2024-02-25 19:38:00,SystemResetWarning,0824.0,5.00,000.00,022.2,021.6,000.0,030.2,023.9,07.9,0000.0,0012.87,0003.50,0001.50
2024-02-25 19:39:00,SystemResetWarning,0823.8,5.01,000.00,022.2,021.6,000.0,030.2,023.9,08.0,0000.0,0012.74,0003.43,0001.49
2024-02-25 19:40:00,SystemResetWarning,0823.8,4.99,000.00,022.2,021.6,000.0,030.2,023.9,07.9,0000.0,0012.61,0003.41,0001.49
2024-02-25 19:41:00,SystemResetWarning,0823.9,4.99,000.00,022.2,021.6,000.0,030.2,023.9,07.9,0000.0,0012.39,0003.41,0001.48
2024-02-25 19:42:00,SystemResetWarning,0823.8,5.00,000.00,022.2,021.7,000.0,030.2,023.9,07.9,0000.0,0012.68,0003.37,0001.48
2024-02-25 19:43:00,SystemResetWarning,0823.7,5.01,000.00,022.3,021.7,000.0,030.2,024.0,07.9,0000.0,0013.46,0003.36,0001.48
2024-02-25 19:44:00,SystemResetWarning,0823.6,5.01,000.00,022.3,021.7,000.0,030.3,024.0,07.8,0000.0,0012.88,0003.36,0001.49
2024-02-25 19:45:00,SystemResetWarning,0823.5,5.00,000.00,022.3,021.7,000.0,030.3,024.0,07.7,0000.0,0012.22,0003.35,0001.49
2024-02-25 19:46:00,SystemResetWarning,0823.6,5.00,000.00,022.3,021.7,000.0,030.3,024.0,07.8,0000.0,0012.34,0003.33,0001.49
2024-02-25 19:47:00,SystemResetWarning,0823.4,4.99,000.00,022.3,021.7,000.0,030.3,024.0,07.8,0000.0,0013.73,0003.38,0001.50
2024-02-25 19:48:00,SystemResetWarning,0823.4,4.99,000.00,022.3,021.7,000.0,030.3,024.0,07.6,0000.0,0013.43,0003.37,0001.49
2024-02-25 19:49:00,SystemResetWarning,0823.6,5.01,000.00,022.3,021.7,000.0,030.4,024.0,07.6,0000.0,0012.62,0003.32,0001.48
2024-02-25 19:50:00,SystemResetWarning,0823.7,5.01,000.00,022.3,021.7,000.0,030.4,024.0,07.8,0000.0,0013.10,0003.32,0001.48
2024-02-25 19:51:00,SystemResetWarning,0823.6,5.00,000.00,022.3,021.7,000.0,030.4,024.0,07.9,0000.0,0012.94,0003.34,0001.46
2024-02-25 19:52:00,SystemResetWarning,0823.7,4.99,000.00,022.3,021.7,000.0,030.4,024.0,07.8,0000.0,0013.35,0003.31,0001.47
2024-02-25 19:53:00,SystemResetWarning,0823.7,5.00,000.00,022.4,021.8,000.0,030.4,024.0,07.8,0000.0,0013.99,0003.31,0001.49
2024-02-25 19:54:00,SystemResetWarning,0823.6,5.00,000.00,022.4,021.8,000.0,030.4,024.1,07.8,0000.0,0014.00,0003.34,0001.49
2024-02-25 19:55:00,SystemResetWarning,0823.7,5.01,000.00,022.4,021.8,000.0,030.4,024.1,07.8,0000.0,0013.31,0003.32,0001.48
2024-02-25 19:56:00,SystemResetWarning,0823.7,5.01,000.00,022.4,021.8,000.0,030.4,024.1,07.9,0000.0,0013.34,0003.28,0001.48
2024-02-25 19:57:00,SystemResetWarning,0823.7,5.00,000.00,022.4,021.8,000.0,030.4,024.1,08.1,0000.0,0013.40,0003.27,0001.47
2024-02-25 19:58:00,SystemResetWarning,0823.7,4.99,000.00,022.4,021.8,000.0,030.4,024.1,08.0,0000.0,0012.44,0003.25,0001.48
2024-02-25 19:59:00,SystemResetWarning,0823.6,4.99,000.00,022.5,021.8,000.0,030.4,024.1,07.8,0000.0,0011.93,0003.26,0001.48
